QPF
0.00 0.00 0.00 0.00 0.00 0.00 0.00 0.00 0.00 0.00 0.00 0.00 0.00 0.00 0.00 0.00 0.00 0.00 0.00 0.00 0.00 0.00 0.00 0.00 0.00 0.00 0.00 0.00 0.00 0.00 0.00 0.00 0.00 0.01 0.00 0.00 0.00 0.00 0.00 0.00 0.00 0.00 0.00 0.00 0.00 0.00 0.00 0.00 0.00
0.00 0.00 0.00 0.00 0.00 0.00 0.00 0.00 0.00 0.00 0.00 0.00 0.00 0.00 0.00 0.00 0.00 0.00 0.00 0.00 0.00 0.00 0.00 0.00 0.00 0.00 0.00 0.00 0.00 0.00 0.00 0.00 0.00 0.00 0.01 0.00 0.00 0.00 0.00 0.00 0.00 0.00 0.00 0.00 0.00 0.00 0.00 0.00 0.00
0.00 0.00 0.00 0.00 0.00 0.00 0.00 0.00 0.00 0.00 0.00 0.00 0.00 0.00 0.00 0.00 0.00 0.00 0.00 0.00 0.00 0.00 0.00 0.00 0.00 0.00 0.00 0.00 0.00 0.00 0.00 0.00 0.00 0.00 0.01 0.00 0.00 0.00 0.00 0.00 0.00 0.00 0.00 0.00 0.00 0.00 0.00 0.00 0.00
0.00 0.00 0.00 0.00 0.00 0.00 0.00 0.00 0.00 0.00 0.00 0.00 0.00 0.00 0.00 0.00 0.00 0.00 0.00 0.00 0.00 0.00 0.00 0.00 0.00 0.00 0.00 0.00 0.00 0.00 0.00 0.00 0.00 0.00 0.01 0.01 0.00 0.00 0.00 0.01 0.00 0.00 0.00 0.00 0.00 0.00 0.01 0.01 0.00
0.00 0.00 0.00 0.00 0.00 0.00 0.00 0.00 0.00 0.00 0.00 0.00 0.00 0.00 0.00 0.00 0.00 0.00 0.00 0.00 0.00 0.00 0.00 0.00 0.00 0.00 0.00 0.00 0.00 0.00 0.00 0.00 0.00 0.00 0.01 0.00 0.00 0.00 0.00 0.00 0.00 0.00 0.00 0.00 0.00 0.01 0.01 0.01 0.01
0.00 0.00 0.00 0.00 0.00 0.00 0.00 0.00 0.00 0.00 0.00 0.00 0.00 0.00 0.00 0.00 0.00 0.00 0.00 0.00 0.00 0.00 0.00 0.00 0.00 0.00 0.00 0.00 0.00 0.00 0.00 0.00 0.00 0.00 0.00 0.00 0.00 0.00 0.00 0.00 0.00 0.01 0.00 0.00 0.00 0.01 0.01 0.01 0.01
0.00 0.00 0.00 0.00 0.00 0.00 0.00 0.00 0.00 0.00 0.00 0.00 0.00 0.00 0.00 0.00 0.00 0.00 0.00 0.00 0.00 0.00 0.03 0.02 0.00 0.01 0.00 0.00 0.00 0.00 0.00 0.00 0.00 0.00 0.00 0.00 0.00 0.00 0.00 0.00 0.00 0.02 0.00 0.01 0.01 0.00 0.01 0.00 0.00
0.00 0.00 0.00 0.00 0.00 0.00 0.00 0.00 0.00 0.00 0.00 0.00 0.00 0.00 0.00 0.00 0.00 0.00 0.00 0.00 0.00 0.00 0.01 0.01 0.01 0.00 0.00 0.00 0.00 0.00 0.00 0.00 0.00 0.00 0.00 0.01 0.01 0.00 0.00 0.00 0.00 0.03 0.01 0.01 0.00 0.00 0.00 0.00 0.00
0.00 0.00 0.00 0.00 0.00 0.00 0.00 0.00 0.00 0.00 0.00 0.00 0.00 0.00 0.00 0.00 0.00 0.00 0.00 0.00 0.00 0.01 0.02 0.01 0.00 0.01 0.00 0.00 0.00 0.00 0.00 0.00 0.00 0.01 0.00 0.01 0.00 0.00 0.00 0.00 0.01 0.04 0.01 0.00 0.00 0.00 0.00 0.00 0.00
0.00 0.00 0.00 0.00 0.00 0.00 0.00 0.00 0.00 0.00 0.00 0.00 0.00 0.00 0.00 0.00 0.00 0.00 0.00 0.00 0.00 0.01 0.00 0.01 0.01 0.00 0.00 0.00 0.00 0.00 0.00 0.00 0.00 0.00 0.01 0.01 0.00 0.00 0.00 0.00 0.02 0.02 0.00 0.00 0.00 0.00 0.00 0.00 0.00
0.00 0.00 0.00 0.00 0.00 0.00 0.00 0.00 0.00 0.00 0.00 0.00 0.00 0.00 0.00 0.00 0.00 0.00 0.00 0.00 0.00 0.02 0.03 0.01 0.03 0.04 0.02 0.01 0.00 0.00 0.00 0.00 0.00 0.00 0.00 0.00 0.00 0.00 0.01 0.01 0.04 0.02 0.00 0.01 0.00 0.00 0.00 0.00 0.00
0.00 0.00 0.00 0.00 0.00 0.00 0.00 0.00 0.00 0.00 0.00 0.00 0.00 0.00 0.00 0.00 0.00 0.00 0.00 0.00 0.00 0.00 0.01 0.01 0.01 0.06 0.06 0.04 0.00 0.00 0.00 0.00 0.00 0.00 0.00 0.00 0.00 0.00 0.01 0.00 0.05 0.04 0.02 0.01 0.00 0.00 0.00 0.00 0.00
0.00 0.00 0.00 0.00 0.00 0.00 0.00 0.00 0.00 0.00 0.00 0.00 0.00 0.00 0.00 0.00 0.00 0.00 0.00 0.00 0.00 0.00 0.01 0.01 0.03 0.05 0.04 0.05 0.02 0.01 0.00 0.00 0.00 0.00 0.00 0.00 0.00 0.00 0.00 0.00 0.05 0.03 0.02 0.00 0.00 0.00 0.00 0.00 0.00
0.00 0.00 0.00 0.00 0.00 0.00 0.00 0.00 0.00 0.00 0.00 0.00 0.00 0.00 0.00 0.00 0.00 0.00 0.00 0.00 0.00 0.00 0.00 0.03 0.07 0.06 0.09 0.06 0.01 0.01 0.01 0.00 0.00 0.00 0.00 0.00 0.00 0.00 0.00 0.01 0.03 0.01 0.00 0.00 0.00 0.00 0.00 0.00 0.00
0.00 0.00 0.00 0.00 0.00 0.00 0.00 0.00 0.00 0.00 0.00 0.00 0.00 0.00 0.00 0.00 0.00 0.00 0.00 0.00 0.00 0.00 0.00 0.01 0.06 0.08 0.09 0.07 0.05 0.02 0.01 0.00 0.00 0.00 0.00 0.00 0.00 0.00 0.00 0.01 0.02 0.00 0.00 0.00 0.00 0.00 0.00 0.00 0.00
0.00 0.00 0.00 0.00 0.00 0.00 0.00 0.00 0.00 0.00 0.00 0.00 0.00 0.00 0.00 0.00 0.00 0.00 0.00 0.00 0.00 0.00 0.00 0.00 0.01 0.05 0.09 0.09 0.08 0.08 0.04 0.02 0.00 0.00 0.00 0.00 0.00 0.00 0.01 0.01 0.01 0.00 0.00 0.00 0.00 0.00 0.00 0.00 0.00
0.00 0.00 0.00 0.00 0.00 0.00 0.00 0.00 0.00 0.00 0.00 0.00 0.00 0.00 0.00 0.00 0.00 0.00 0.00 0.00 0.00 0.00 0.00 0.00 0.00 0.02 0.07 0.10 0.09 0.09 0.11 0.05 0.05 0.03 0.00 0.00 0.00 0.00 0.00 0.01 0.00 0.00 0.00 0.00 0.00 0.00 0.00 0.00 0.00
0.00 0.00 0.00 0.00 0.00 0.00 0.00 0.00 0.00 0.00 0.00 0.00 0.00 0.00 0.00 0.00 0.00 0.00 0.00 0.00 0.00 0.00 0.00 0.00 0.00 0.01 0.05 0.10 0.11 0.09 0.09 0.09 0.06 0.05 0.02 0.01 0.00 0.00 0.00 0.00 0.00 0.00 0.01 0.00 0.00 0.00 0.00 0.00 0.00
0.00 0.00 0.00 0.00 0.00 0.00 0.00 0.00 0.00 0.00 0.00 0.00 0.00 0.00 0.00 0.00 0.00 0.00 0.00 0.00 0.00 0.00 0.00 0.00 0.00 0.00 0.03 0.08 0.10 0.07 0.05 0.08 0.06 0.04 0.02 0.01 0.01 0.00 0.00 0.00 0.00 0.00 0.00 0.00 0.00 0.00 0.00 0.00 0.00
0.00 0.00 0.00 0.00 0.00 0.00 0.00 0.00 0.00 0.00 0.00 0.00 0.00 0.00 0.00 0.00 0.00 0.00 0.00 0.00 0.00 0.00 0.00 0.00 0.00 0.00 0.00 0.02 0.07 0.06 0.04 0.05 0.08 0.05 0.02 0.01 0.00 0.00 0.01 0.00 0.00 0.00 0.00 0.00 0.00 0.00 0.00 0.00 0.00
0.00 0.00 0.00 0.00 0.00 0.00 0.00 0.00 0.00 0.00 0.00 0.00 0.00 0.00 0.00 0.00 0.00 0.00 0.00 0.00 0.00 0.00 0.00 0.00 0.00 0.00 0.00 0.00 0.01 0.04 0.04 0.03 0.07 0.06 0.02 0.01 0.01 0.00 0.01 0.01 0.00 0.00 0.00 0.00 0.00 0.00 0.00 0.00 0.00
0.00 0.00 0.00 0.00 0.00 0.00 0.00 0.00 0.00 0.00 0.00 0.00 0.00 0.00 0.00 0.00 0.00 0.00 0.00 0.00 0.00 0.00 0.00 0.00 0.00 0.00 0.00 0.00 0.00 0.01 0.02 0.03 0.02 0.03 0.01 0.01 0.01 0.00 0.01 0.01 0.01 0.01 0.00 0.00 0.00 0.00 0.00 0.00 0.00
0.00 0.00 0.00 0.00 0.00 0.00 0.00 0.00 0.00 0.00 0.00 0.00 0.00 0.00 0.00 0.00 0.00 0.00 0.00 0.00 0.00 0.00 0.00 0.00 0.00 0.00 0.00 0.00 0.00 0.00 0.00 0.01 0.02 0.03 0.02 0.02 0.01 0.01 0.00 0.01 0.01 0.01 0.00 0.00 0.00 0.00 0.00 0.00 0.00
0.00 0.00 0.00 0.00 0.00 0.00 0.00 0.00 0.00 0.00 0.00 0.00 0.00 0.00 0.00 0.00 0.00 0.00 0.00 0.00 0.00 0.00 0.00 0.00 0.00 0.00 0.00 0.00 0.00 0.00 0.00 0.01 0.03 0.04 0.04 0.02 0.02 0.01 0.01 0.00 0.00 0.00 0.00 0.00 0.00 0.00 0.00 0.00 0.00
0.00 0.00 0.00 0.00 0.00 0.00 0.00 0.00 0.00 0.00 0.00 0.00 0.00 0.00 0.00 0.00 0.00 0.00 0.00 0.00 0.00 0.00 0.00 0.00 0.00 0.00 0.00 0.00 0.00 0.00 0.00 0.02 0.04 0.05 0.07 0.05 0.03 0.02 0.01 0.01 0.00 0.00 0.00 0.00 0.00 0.00 0.00 0.00 0.00
0.00 0.00 0.00 0.00 0.00 0.00 0.00 0.00 0.00 0.00 0.00 0.00 0.00 0.00 0.00 0.00 0.00 0.00 0.00 0.00 0.00 0.00 0.00 0.00 0.00 0.00 0.00 0.00 0.00 0.00 0.00 0.01 0.03 0.05 0.05 0.05 0.04 0.05 0.03 0.02 0.01 0.00 0.00 0.00 0.00 0.00 0.00 0.00 0.00
0.00 0.00 0.00 0.00 0.00 0.00 0.00 0.00 0.00 0.00 0.00 0.00 0.00 0.00 0.00 0.00 0.00 0.00 0.00 0.00 0.00 0.00 0.00 0.00 0.00 0.00 0.00 0.00 0.00 0.00 0.00 0.00 0.01 0.03 0.05 0.04 0.07 0.05 0.04 0.02 0.02 0.00 0.00 0.00 0.00 0.00 0.00 0.00 0.00
0.00 0.00 0.00 0.00 0.00 0.00 0.00 0.00 0.00 0.00 0.00 0.00 0.00 0.00 0.00 0.00 0.00 0.00 0.00 0.00 0.00 0.00 0.00 0.00 0.00 0.00 0.00 0.00 0.00 0.00 0.00 0.00 0.00 0.01 0.02 0.03 0.03 0.04 0.03 0.02 0.01 0.00 0.00 0.00 0.00 0.00 0.00 0.00 0.00
0.00 0.00 0.00 0.00 0.00 0.00 0.00 0.00 0.00 0.00 0.00 0.00 0.00 0.00 0.00 0.00 0.00 0.00 0.00 0.00 0.00 0.00 0.01 0.01 0.00 0.00 0.00 0.00 0.00 0.00 0.00 0.00 0.00 0.01 0.01 0.01 0.02 0.02 0.02 0.01 0.00 0.00 0.00 0.00 0.00 0.00 0.00 0.00 0.00
0.00 0.00 0.00 0.00 0.00 0.00 0.00 0.00 0.00 0.00 0.00 0.00 0.00 0.00 0.00 0.00 0.00 0.00 0.00 0.00 0.00 0.00 0.00 0.00 0.00 0.00 0.00 0.00 0.00 0.00 0.00 0.00 0.00 0.00 0.01 0.01 0.01 0.01 0.01 0.00 0.00 0.00 0.00 0.00 0.00 0.00 0.00 0.00 0.00
MSLP
1010.83 1010.05 1009.23 1008.76 1007.87 1005.99 1004.36 1003.93 1004.33 1003.84 1003.84 1003.72 1004.09 1004.10 1003.86 1003.80 1003.58 1004.55 1005.65 1005.54 1005.45 1006.11 1007.06 1008.52 1008.87 1009.32 1009.73 1010.05 1010.39 1010.59 1011.19 1011.60 1011.83 1012.15 1012.52 1012.82 1013.09 1013.41 1013.70 1013.99 1014.23 1014.33 1014.63 1014.99 1015.27 1015.45 1015.73 1015.94 1016.17
1010.93 1010.13 1009.00 1007.89 1006.82 1004.88 1003.76 1003.73 1004.25 1004.11 1004.03 1004.50 1004.33 1004.11 1003.83 1003.46 1003.88 1004.56 1005.29 1005.92 1006.03 1006.33 1007.44 1008.42 1009.06 1009.42 1009.85 1010.36 1010.65 1010.91 1011.18 1011.64 1011.98 1012.21 1012.54 1012.85 1013.14 1013.39 1013.68 1014.06 1014.35 1014.63 1014.89 1015.26 1015.50 1015.81 1016.03 1016.20 1016.42
1010.87 1010.40 1009.36 1008.07 1006.67 1005.26 1004.06 1004.09 1004.25 1004.63 1005.04 1004.69 1004.27 1004.53 1004.34 1004.12 1004.72 1005.34 1005.94 1006.41 1006.48 1007.12 1007.80 1008.59 1009.38 1009.56 1010.16 1010.59 1010.91 1011.10 1011.35 1011.62 1012.02 1012.16 1012.52 1012.94 1013.27 1013.50 1013.63 1014.06 1014.41 1014.84 1015.15 1015.40 1015.59 1015.97 1016.23 1016.42 1016.63
1011.13 1010.51 1010.25 1008.76 1006.71 1005.67 1005.13 1004.80 1004.98 1005.31 1005.04 1005.21 1005.30 1004.89 1004.71 1006.33 1006.43 1006.72 1006.50 1006.69 1006.59 1007.47 1008.01 1009.01 1009.50 1009.76 1010.37 1010.78 1011.08 1011.31 1011.44 1011.55 1011.90 1012.25 1012.45 1012.84 1013.26 1013.54 1013.78 1014.04 1014.36 1014.78 1015.23 1015.54 1015.88 1016.13 1016.30 1016.44 1016.76
1012.00 1011.90 1010.75 1008.99 1007.42 1006.69 1006.18 1006.32 1006.17 1006.22 1006.01 1005.62 1005.85 1005.33 1005.48 1006.66 1006.92 1007.09 1006.96 1007.10 1006.83 1007.57 1008.35 1009.27 1009.52 1010.01 1010.23 1010.85 1011.09 1011.44 1011.73 1011.74 1011.88 1012.23 1012.47 1012.70 1013.14 1013.44 1013.82 1014.03 1014.26 1014.68 1014.99 1015.42 1015.93 1016.29 1016.42 1016.54 1016.90
1010.87 1010.89 1009.98 1008.88 1008.10 1007.78 1007.31 1007.44 1007.41 1006.81 1006.60 1006.57 1006.49 1006.33 1006.47 1007.44 1007.55 1007.47 1007.50 1007.10 1007.14 1008.00 1008.54 1009.14 1009.68 1010.04 1010.48 1010.65 1010.93 1011.48 1011.78 1012.03 1012.07 1012.31 1012.70 1012.97 1013.17 1013.54 1013.88 1014.11 1014.27 1014.73 1015.11 1015.38 1015.77 1016.31 1016.49 1016.74 1017.05
1010.92 1009.72 1009.28 1008.56 1007.66 1007.36 1007.29 1008.39 1008.04 1007.82 1007.61 1007.26 1007.65 1006.84 1006.76 1007.78 1008.45 1008.12 1007.83 1007.53 1007.37 1008.20 1008.80 1009.09 1009.49 1010.04 1010.50 1010.80 1011.02 1011.21 1011.61 1012.09 1012.25 1012.46 1012.80 1012.98 1013.41 1013.69 1014.04 1014.32 1014.49 1014.81 1015.18 1015.51 1015.87 1016.22 1016.44 1016.84 1017.26
1010.37 1009.87 1009.04 1008.26 1008.04 1007.95 1008.81 1008.82 1008.88 1008.96 1008.47 1008.18 1007.99 1007.20 1007.49 1008.48 1008.82 1008.73 1008.36 1008.12 1007.76 1008.20 1008.84 1009.13 1009.34 1009.76 1010.33 1010.71 1011.10 1011.22 1011.38 1011.86 1012.25 1012.53 1012.89 1013.28 1013.63 1013.91 1014.09 1014.38 1014.74 1014.97 1015.11 1015.62 1016.02 1016.41 1016.68 1016.84 1017.25
1010.88 1009.79 1008.54 1008.21 1008.14 1008.28 1009.38 1009.57 1009.28 1009.45 1009.00 1008.19 1008.26 1007.83 1007.71 1008.47 1008.90 1008.85 1008.55 1008.79 1008.56 1008.64 1008.96 1009.08 1009.30 1009.52 1009.87 1010.13 1010.87 1011.51 1011.35 1011.50 1012.18 1012.49 1012.79 1013.28 1013.61 1013.92 1014.24 1014.30 1014.67 1014.98 1015.28 1015.72 1016.20 1016.59 1016.87 1017.28 1017.63
1010.62 1009.58 1009.00 1009.81 1009.97 1010.31 1010.48 1010.50 1010.10 1009.65 1008.91 1008.26 1007.79 1007.34 1008.01 1008.78 1008.83 1008.79 1008.68 1008.64 1008.71 1008.80 1008.97 1009.09 1009.20 1009.32 1009.51 1009.80 1010.16 1010.99 1011.21 1011.43 1011.55 1012.07 1012.66 1012.86 1013.56 1013.57 1013.62 1014.32 1014.78 1015.12 1015.47 1015.86 1016.33 1016.86 1017.38 1017.57 1017.47
1010.91 1010.22 1010.71 1010.63 1011.52 1011.97 1011.52 1010.95 1010.42 1010.18 1009.00 1008.50 1008.17 1008.30 1008.90 1009.19 1008.87 1008.87 1008.71 1008.76 1008.61 1008.39 1008.63 1008.74 1008.91 1009.09 1009.38 1009.49 1009.67 1010.30 1010.48 1010.93 1011.29 1011.36 1012.00 1012.44 1013.08 1013.26 1013.55 1014.13 1014.87 1015.29 1015.65 1016.04 1016.84 1017.13 1017.31 1017.12 1017.27
1012.00 1011.73 1011.78 1011.81 1012.28 1012.49 1011.95 1011.72 1010.86 1010.13 1009.16 1008.98 1008.85 1009.03 1009.03 1008.70 1008.77 1008.84 1008.80 1008.63 1008.51 1008.30 1008.08 1008.42 1008.50 1008.55 1008.65 1008.94 1009.26 1009.59 1010.09 1010.29 1010.71 1010.86 1011.30 1011.81 1012.46 1012.65 1013.18 1013.93 1014.50 1014.88 1015.23 1015.95 1016.85 1017.09 1017.05 1017.21 1017.57
1012.48 1012.42 1012.67 1012.79 1013.07 1012.84 1012.61 1011.77 1010.90 1009.59 1009.20 1008.96 1009.08 1009.21 1009.00 1008.80 1008.66 1008.84 1008.81 1008.65 1008.36 1008.07 1007.78 1007.72 1007.89 1008.07 1007.99 1008.28 1008.53 1008.82 1009.19 1009.69 1009.92 1010.33 1010.79 1011.31 1011.72 1012.23 1012.90 1013.32 1013.91 1014.58 1014.91 1015.62 1016.14 1016.82 1017.46 1017.71 1017.88
1013.45 1013.19 1012.85 1012.97 1013.07 1012.93 1012.78 1011.36 1010.78 1008.76 1008.76 1009.21 1009.28 1008.99 1008.68 1008.50 1008.52 1008.62 1008.47 1008.23 1008.17 1007.88 1007.66 1007.31 1007.29 1007.35 1007.51 1007.51 1007.63 1007.81 1008.14 1008.38 1009.09 1009.36 1010.04 1010.74 1011.16 1011.53 1012.50 1013.04 1013.43 1014.29 1014.71 1015.02 1015.77 1016.69 1017.33 1018.00 1018.80
1013.80 1013.15 1012.19 1012.80 1012.87 1012.65 1012.82 1010.29 1009.58 1008.63 1008.64 1008.97 1008.75 1008.45 1008.38 1008.45 1008.61 1008.64 1008.55 1008.45 1008.39 1008.17 1007.97 1007.51 1007.10 1006.96 1006.98 1006.95 1006.97 1006.94 1007.00 1007.41 1007.81 1008.30 1008.89 1009.73 1010.43 1010.86 1011.57 1012.43 1013.29 1013.87 1014.35 1014.80 1015.55 1016.36 1017.29 1018.29 1019.40
1013.27 1012.99 1011.99 1011.68 1012.58 1012.59 1012.82 1010.15 1008.53 1008.57 1008.44 1008.02 1007.92 1007.83 1007.98 1008.33 1008.48 1008.49 1008.60 1008.60 1008.55 1008.30 1007.98 1007.63 1007.13 1006.53 1006.34 1006.35 1006.27 1005.98 1006.29 1006.55 1006.94 1007.11 1007.65 1008.52 1009.49 1010.21 1010.90 1011.79 1012.91 1013.35 1014.08 1014.46 1015.55 1016.33 1017.37 1018.68 1019.72
1013.13 1012.87 1012.53 1012.38 1012.32 1012.92 1012.59 1010.61 1008.99 1008.39 1007.70 1007.44 1007.47 1007.55 1007.86 1008.16 1008.28 1008.36 1008.56 1008.57 1008.50 1008.27 1007.97 1007.53 1007.11 1006.60 1005.87 1005.80 1005.92 1005.51 1005.20 1005.80 1006.34 1006.59 1006.86 1007.33 1008.43 1009.31 1010.04 1010.98 1012.13 1012.98 1013.65 1014.32 1015.24 1016.36 1017.15 1018.46 1019.73
1014.57 1014.02 1013.44 1013.03 1012.54 1012.51 1011.93 1010.19 1008.43 1007.64 1007.11 1007.06 1007.15 1007.47 1007.90 1007.92 1007.99 1008.23 1008.35 1008.33 1008.32 1008.16 1007.79 1007.43 1006.94 1006.34 1005.86 1005.33 1005.18 1005.02 1004.97 1004.23 1005.37 1006.12 1005.59 1006.67 1007.37 1008.30 1009.20 1010.35 1011.65 1012.48 1013.51 1014.28 1015.10 1016.11 1017.25 1018.41 1019.42
1016.42 1015.53 1014.23 1013.21 1013.00 1012.89 1011.46 1009.96 1008.16 1007.14 1006.86 1006.81 1006.98 1007.29 1007.49 1007.79 1008.11 1008.05 1008.10 1008.09 1008.07 1007.81 1007.63 1007.30 1006.83 1006.41 1005.88 1005.76 1005.19 1004.60 1003.84 1004.01 1004.53 1004.58 1005.66 1005.97 1006.61 1007.64 1008.51 1009.43 1010.98 1011.77 1012.94 1013.72 1014.77 1015.89 1017.02 1018.70 1019.88
1016.50 1015.49 1014.38 1013.52 1013.22 1013.36 1011.36 1009.09 1007.61 1006.68 1006.64 1006.85 1006.97 1007.15 1007.49 1007.82 1007.93 1007.96 1008.01 1008.07 1007.89 1007.62 1007.34 1007.08 1006.68 1006.26 1005.85 1005.38 1005.48 1004.80 1003.77 1002.97 1003.47 1003.57 1004.28 1005.61 1005.21 1006.75 1007.61 1008.73 1009.82 1011.02 1012.30 1013.26 1014.26 1015.34 1016.94 1018.13 1018.89
1016.65 1015.86 1015.33 1015.04 1013.73 1012.68 1011.81 1008.30 1006.25 1006.02 1006.80 1007.09 1007.42 1007.62 1007.92 1007.95 1007.91 1008.00 1008.05 1007.99 1007.63 1007.32 1007.21 1006.86 1006.61 1006.15 1005.71 1005.33 1004.79 1004.68 1003.91 1002.89 1001.91 1003.05 1002.95 1003.86 1004.81 1005.46 1006.82 1007.85 1008.66 1010.09 1011.26 1012.26 1013.31 1014.48 1014.97 1016.89 1018.43
1016.89 1016.44 1016.07 1015.42 1014.66 1013.05 1012.47 1009.78 1007.13 1006.36 1006.59 1006.52 1007.01 1007.49 1007.75 1007.92 1008.18 1008.26 1008.22 1007.87 1007.48 1006.83 1006.75 1006.56 1006.23 1005.90 1005.32 1004.98 1004.56 1004.23 1004.17 1003.41 1001.39 1001.68 1001.66 1002.72 1003.99 1004.74 1006.03 1006.92 1007.80 1008.93 1010.47 1011.68 1012.53 1013.73 1014.20 1015.40 1016.73
1017.47 1016.78 1016.26 1015.64 1014.98 1014.11 1012.11 1011.52 1007.49 1006.40 1006.22 1006.55 1007.06 1007.38 1007.96 1008.28 1008.50 1008.37 1007.91 1007.59 1007.06 1006.67 1006.33 1006.27 1006.00 1005.46 1004.99 1004.51 1004.17 1003.74 1003.38 1002.84 1002.09 1001.33 1001.04 1001.61 1002.93 1003.74 1004.37 1005.79 1006.89 1008.16 1009.33 1010.61 1011.34 1012.83 1013.53 1014.79 1015.27
1018.22 1016.67 1015.61 1015.62 1015.19 1014.09 1012.28 1011.72 1008.16 1007.05 1007.40 1007.35 1007.63 1008.16 1008.43 1008.70 1008.46 1008.24 1008.03 1007.76 1007.33 1007.05 1006.45 1005.96 1005.51 1004.96 1004.64 1004.10 1003.51 1003.16 1002.71 1002.38 1001.88 1000.84 999.20 1000.22 1001.98 1003.02 1003.69 1004.95 1006.15 1007.11 1008.24 1009.52 1010.49 1011.98 1012.30 1013.33 1014.34
1018.20 1017.21 1016.01 1015.76 1015.05 1013.53 1012.77 1011.69 1008.69 1007.80 1007.80 1008.36 1008.58 1008.83 1009.10 1008.98 1008.64 1008.41 1008.23 1007.82 1007.36 1007.11 1006.61 1005.85 1005.17 1004.42 1004.17 1003.55 1002.95 1002.70 1002.25 1001.81 1001.03 1000.53 1000.24 1000.44 1001.29 1002.48 1003.39 1004.00 1005.02 1006.17 1007.05 1008.11 1009.55 1010.32 1011.50 1013.11 1013.29
1019.33 1019.31 1018.71 1017.91 1015.98 1014.13 1012.82 1010.90 1008.33 1008.04 1008.57 1008.88 1009.46 1009.88 1009.76 1009.31 1009.17 1008.89 1008.57 1008.09 1007.55 1006.96 1006.34 1005.75 1004.92 1004.02 1003.62 1003.02 1002.42 1002.20 1001.89 1001.48 1000.72 1000.31 999.80 999.90 1001.04 1001.92 1002.61 1003.54 1004.38 1005.31 1006.41 1007.67 1008.59 1009.24 1010.30 1011.81 1012.57
1019.91 1019.83 1020.04 1019.39 1017.46 1015.91 1012.23 1009.93 1008.06 1008.28 1008.25 1008.87 1009.67 1009.98 1009.95 1009.78 1009.68 1009.20 1008.74 1008.18 1007.53 1006.74 1005.96 1005.24 1004.53 1003.78 1003.23 1002.42 1001.85 1001.67 1001.30 1000.93 1000.54 999.78 1000.08 999.95 1000.69 1001.63 1002.35 1002.82 1004.14 1004.40 1004.98 1006.64 1007.82 1008.63 1009.93 1011.17 1012.74
1020.58 1020.84 1020.42 1020.10 1018.30 1015.62 1012.11 1010.24 1008.06 1008.08 1008.43 1009.23 1009.49 1010.14 1010.23 1010.18 1009.95 1009.55 1009.01 1008.30 1007.52 1006.50 1005.49 1004.69 1003.81 1003.12 1002.63 1002.14 1001.47 1001.14 1000.80 1000.43 1000.27 999.79 999.98 1001.15 1001.58 1002.08 1002.36 1003.64 1004.49 1004.61 1005.76 1006.75 1008.13 1009.55 1010.51 1011.88 1013.36
1020.51 1020.71 1020.91 1020.64 1019.53 1017.52 1014.14 1010.29 1008.90 1008.97 1008.95 1009.60 1010.11 1010.81 1010.75 1010.59 1010.25 1009.81 1009.25 1008.52 1007.41 1006.22 1005.09 1004.19 1003.17 1002.32 1001.77 1001.38 1001.06 1000.71 1000.53 1000.28 999.78 999.92 1000.77 1001.60 1001.95 1002.84 1003.46 1004.14 1004.78 1005.69 1007.06 1007.95 1008.97 1010.11 1011.21 1012.53 1013.94
1020.12 1020.33 1020.57 1020.63 1019.64 1018.54 1016.90 1011.94 1009.62 1009.14 1009.66 1010.66 1011.21 1011.42 1011.51 1011.38 1010.85 1010.37 1009.59 1008.54 1007.35 1006.12 1004.81 1003.54 1002.45 1001.66 1001.09 1000.82 1000.75 1000.56 1000.52 1000.43 1000.20 1000.81 1001.55 1002.15 1003.25 1003.92 1004.49 1005.17 1006.13 1006.83 1008.01 1009.09 1009.95 1011.02 1012.16 1013.35 1014.30
Thickness
5658 5668 5678 5678 5667 5684 5690 5699 5709 5706 5709 5723 5725 5721 5722 5729 5722 5708 5736 5742 5745 5739 5733 5720 5720 5716 5714 5713 5712 5712 5708 5705 5705 5703 5701 5700 5699 5696 5695 5693 5691 5691 5689 5687 5685 5685 5684 5683 5682
5653 5663 5672 5674 5664 5677 5694 5710 5695 5702 5714 5719 5720 5722 5723 5722 5738 5735 5734 5738 5738 5735 5726 5718 5714 5712 5710 5707 5706 5706 5704 5701 5700 5700 5698 5697 5696 5695 5693 5690 5687 5685 5684 5682 5681 5679 5678 5678 5677
5652 5658 5656 5659 5667 5670 5687 5700 5699 5702 5707 5711 5713 5721 5720 5720 5728 5727 5731 5730 5732 5726 5720 5712 5706 5706 5703 5701 5700 5701 5700 5699 5697 5697 5696 5693 5691 5691 5690 5687 5685 5681 5678 5677 5677 5675 5674 5673 5672
5645 5649 5649 5647 5664 5685 5688 5696 5698 5694 5704 5708 5707 5703 5722 5714 5712 5716 5724 5725 5725 5719 5714 5705 5703 5700 5695 5694 5694 5694 5696 5696 5694 5692 5692 5691 5688 5687 5686 5685 5682 5679 5675 5672 5671 5671 5670 5670 5668
5644 5629 5627 5641 5662 5677 5688 5686 5689 5682 5689 5697 5699 5696 5703 5705 5711 5711 5714 5716 5718 5714 5708 5700 5698 5694 5693 5689 5688 5686 5687 5689 5690 5688 5687 5687 5685 5684 5682 5681 5681 5678 5676 5672 5668 5666 5666 5666 5664
5649 5647 5637 5637 5652 5664 5671 5675 5675 5680 5685 5686 5686 5688 5691 5698 5697 5701 5705 5710 5713 5703 5701 5696 5693 5690 5687 5687 5687 5681 5680 5680 5683 5682 5680 5680 5680 5678 5677 5677 5676 5674 5671 5670 5668 5664 5662 5661 5659
5644 5653 5641 5652 5664 5666 5675 5665 5663 5666 5668 5674 5676 5675 5685 5683 5683 5690 5696 5700 5704 5697 5694 5691 5688 5685 5682 5680 5680 5681 5677 5674 5676 5676 5675 5674 5672 5673 5671 5670 5670 5668 5665 5664 5663 5662 5660 5657 5653
5653 5652 5648 5658 5655 5655 5658 5660 5662 5657 5658 5673 5674 5667 5665 5671 5674 5678 5683 5687 5694 5692 5688 5687 5684 5682 5677 5675 5672 5673 5675 5671 5669 5669 5669 5667 5665 5665 5665 5664 5662 5661 5662 5659 5657 5655 5654 5654 5651
5653 5645 5652 5661 5664 5664 5656 5648 5661 5661 5658 5667 5665 5667 5674 5671 5666 5667 5671 5671 5676 5680 5678 5680 5679 5677 5674 5674 5669 5665 5668 5669 5664 5664 5664 5661 5660 5660 5658 5659 5658 5657 5657 5655 5652 5649 5648 5646 5643
5649 5652 5659 5651 5650 5644 5644 5644 5647 5649 5653 5658 5662 5672 5669 5661 5659 5658 5661 5663 5664 5666 5669 5670 5672 5673 5672 5670 5669 5664 5664 5664 5666 5662 5660 5661 5656 5658 5659 5654 5652 5650 5650 5649 5646 5642 5639 5638 5638
5648 5649 5643 5647 5638 5631 5632 5636 5644 5637 5642 5651 5651 5650 5648 5647 5651 5650 5653 5653 5656 5664 5663 5665 5666 5666 5665 5666 5666 5662 5664 5662 5661 5663 5659 5657 5654 5654 5653 5651 5646 5643 5643 5641 5635 5635 5633 5634 5634
5631 5633 5632 5632 5628 5622 5626 5627 5629 5633 5641 5646 5645 5643 5640 5643 5645 5644 5644 5647 5649 5653 5658 5659 5660 5660 5662 5660 5660 5660 5659 5659 5658 5658 5658 5656 5652 5653 5651 5647 5642 5641 5638 5636 5630 5628 5630 5630 5627
5628 5626 5621 5619 5613 5615 5615 5618 5622 5631 5638 5641 5637 5633 5633 5634 5634 5635 5637 5639 5641 5644 5649 5653 5654 5654 5659 5657 5656 5657 5658 5657 5657 5656 5655 5653 5653 5651 5646 5645 5640 5637 5636 5632 5629 5625 5620 5619 5620
5616 5614 5616 5612 5609 5609 5602 5613 5613 5632 5633 5624 5622 5623 5625 5626 5626 5626 5626 5630 5631 5636 5639 5645 5647 5649 5650 5651 5655 5656 5656 5658 5655 5655 5653 5649 5649 5650 5642 5640 5639 5634 5632 5631 5626 5620 5617 5612 5607
5610 5612 5622 5609 5606 5604 5597 5619 5610 5624 5620 5611 5610 5612 5613 5611 5609 5608 5612 5612 5615 5619 5624 5630 5636 5641 5641 5643 5648 5654 5658 5656 5656 5655 5653 5649 5646 5645 5643 5638 5633 5631 5628 5625 5622 5616 5610 5605 5596
5613 5610 5613 5618 5602 5598 5589 5604 5621 5616 5608 5604 5603 5603 5599 5594 5592 5592 5592 5594 5597 5601 5606 5613 5621 5629 5635 5637 5640 5647 5651 5653 5653 5655 5654 5649 5643 5640 5638 5634 5628 5627 5621 5621 5615 5612 5604 5595 5587
5614 5601 5601 5597 5600 5586 5580 5588 5598 5603 5601 5594 5590 5586 5579 5574 5572 5571 5569 5570 5574 5580 5586 5594 5602 5612 5622 5629 5631 5638 5646 5646 5645 5646 5648 5648 5641 5637 5636 5633 5627 5620 5617 5615 5610 5603 5599 5590 5581
5584 5584 5586 5582 5589 5582 5574 5581 5590 5590 5586 5577 5571 5563 5555 5552 5548 5546 5545 5546 5549 5554 5564 5572 5583 5594 5603 5615 5623 5628 5634 5648 5637 5635 5648 5642 5640 5635 5633 5628 5622 5616 5611 5607 5604 5597 5591 5583 5576
5562 5564 5570 5581 5576 5560 5563 5563 5569 5574 5567 5561 5555 5548 5543 5537 5532 5529 5524 5522 5522 5528 5536 5548 5559 5570 5582 5590 5606 5618 5630 5633 5633 5639 5637 5638 5632 5627 5626 5626 5617 5614 5608 5605 5598 5590 5583 5572 5565
5561 5564 5568 5571 5563 5540 5546 5549 5555 5561 5558 5553 5548 5543 5537 5529 5524 5518 5513 5507 5504 5504 5510 5520 5534 5547 5559 5574 5582 5598 5615 5630 5631 5634 5635 5629 5626 5625 5624 5619 5617 5610 5602 5598 5592 5587 5576 5567 5564
5556 5555 5549 5533 5539 5533 5521 5553 5568 5564 5549 5543 5535 5529 5521 5515 5511 5505 5499 5493 5492 5491 5489 5494 5504 5520 5537 5551 5567 5579 5597 5615 5632 5624 5633 5632 5628 5627 5618 5616 5616 5609 5601 5596 5591 5583 5582 5566 5556
5543 5541 5530 5518 5513 5518 5518 5521 5552 5556 5545 5543 5533 5521 5512 5503 5495 5489 5482 5481 5478 5481 5478 5478 5483 5495 5513 5530 5547 5564 5573 5591 5623 5627 5634 5630 5624 5624 5619 5616 5613 5608 5598 5591 5587 5579 5579 5570 5561
5533 5529 5517 5513 5508 5510 5524 5503 5547 5556 5545 5536 5526 5514 5500 5489 5479 5473 5472 5467 5466 5465 5466 5465 5466 5475 5490 5509 5527 5546 5562 5580 5603 5618 5626 5627 5622 5622 5622 5614 5609 5604 5598 5590 5588 5578 5574 5566 5565
5517 5527 5526 5516 5511 5506 5521 5507 5534 5539 5525 5522 5514 5501 5489 5478 5472 5466 5459 5452 5449 5445 5446 5449 5455 5461 5470 5488 5511 5531 5552 5566 5587 5605 5623 5626 5617 5616 5616 5613 5607 5603 5598 5591 5588 5576 5575 5570 5565
5519 5511 5527 5523 5519 5524 5512 5504 5523 5530 5522 5506 5496 5486 5473 5463 5457 5449 5440 5437 5434 5428 5427 5430 5438 5450 5454 5472 5496 5516 5536 5554 5577 5595 5603 5608 5610 5609 5610 5609 5606 5602 5599 5596 5585 5581 5573 5562 5564
5497 5483 5488 5487 5513 5512 5511 5495 5526 5526 5509 5499 5483 5468 5457 5449 5438 5430 5422 5419 5415 5413 5412 5413 5419 5435 5442 5456 5482 5502 5521 5542 5563 5580 5598 5603 5603 5605 5607 5603 5602 5598 5595 5589 5586 5582 5574 5564 5561
5488 5487 5476 5458 5475 5460 5510 5522 5531 5515 5509 5496 5475 5458 5441 5429 5415 5407 5406 5402 5397 5395 5395 5399 5404 5417 5429 5444 5468 5490 5512 5533 5552 5571 5582 5592 5596 5595 5597 5600 5593 5595 5590 5588 5582 5579 5568 5562 5550
5477 5471 5469 5461 5465 5475 5515 5513 5520 5511 5500 5483 5468 5447 5430 5416 5402 5393 5390 5384 5377 5375 5379 5386 5396 5408 5420 5433 5454 5480 5503 5526 5539 5563 5573 5575 5581 5582 5590 5583 5582 5578 5576 5575 5566 5561 5553 5545 5535
5476 5467 5453 5454 5461 5468 5472 5517 5516 5501 5494 5467 5457 5435 5414 5400 5392 5385 5375 5366 5362 5362 5369 5379 5390 5405 5419 5432 5447 5472 5494 5514 5534 5549 5553 5561 5557 5562 5569 5569 5568 5559 5559 5557 5553 5545 5539 5530 5520
5476 5464 5463 5454 5467 5459 5447 5476 5508 5504 5490 5464 5443 5419 5402 5386 5381 5372 5362 5358 5357 5359 5366 5377 5391 5407 5421 5434 5445 5465 5484 5501 5519 5528 5535 5543 5543 5545 5538 5545 5549 5548 5544 5540 5535 5528 5523 5516 5507